Location: Wien
(48.2082°N, 16.3738°E)
Time: 13:22:43
(UTC+02:00)

Tiros 1 despin weight - Pass Details

Date: 16 September 2024
Orbit: 573 x 615 km, 48.2° (Epoch: 06 October)

Event Time Altitude Azimuth Distance (km) Brightness Sun altitude
Rises 09:17:34 0° 284° (WNW) 2,891 ? 25.6°
Reaches altitude 10° 09:20:05 10° 274° (W) 1,982 ? 26.0°
Maximum altitude 09:24:05 31° 213° (SSW) 1,088 ? 26.6°
Drops below altitude 10° 09:28:03 10° 151° (SSE) 1,961 ? 27.2°
Sets 09:30:32 0° 141° (SE) 2,856 ? 27.5°
